Overview Statistics Trail Chart Weather Telemetry Raw packets
 

This is the latest recevied weather packets stored in our database for station/object IW1RCO-13. If no packets are shown the sender has not sent any weather packets the latest 10 day(s).

<< 30 31 32 33 34 35 36 >>
Time Temp. Humidity Pressure Rain* Wind** Luminosity Snow
1788434069 28.89° C 61% 1020 hPa - - - -
1788431971 28.89° C 58% 1019.6 hPa - - - -
1788431668 28.33° C 58% 1019.7 hPa - - - -
1788431371 28.33° C 55% 1019.5 hPa - - - -
1788431068 27.78° C 57% 1019.8 hPa - - - -
1788430771 27.22° C 60% 1019.6 hPa - - - -
1788430467 27.22° C 60% 1019.9 hPa - - - -
1788430170 27.22° C 62% 1019.7 hPa - - - -
1788429867 27.22° C 61% 1019.5 hPa - - - -
1788429570 27.22° C 61% 1019.8 hPa - - - -
1788429330 27.78° C 59% 1019.8 hPa - - - -
1788428970 27.22° C 58% 1019.6 hPa - - - -
1788428666 27.22° C 57% 1019.9 hPa - - - -
1788428369 27.22° C 61% 1019.7 hPa - - - -
1788428073 26.67° C 61% 1019.7 hPa - - - -
1788427769 27.22° C 60% 1019.8 hPa - - - -
1788427472 27.22° C 65% 1019.7 hPa - - - -
1788427169 26.11° C 63% 1019.8 hPa - - - -
1788426872 26.11° C 64% 1019.8 hPa - - - -
1788426272 25.56° C 68% 1019.6 hPa - - - -
1788425968 25.56° C 68% 1019.6 hPa - - - -
1788425672 25.56° C 68% 1019.7 hPa - - - -
1788425368 25° C 70% 1019.5 hPa - - - -
1788425071 25° C 71% 1019.6 hPa - - - -
1788424768 25° C 71% 1019.4 hPa - - - -

* Rain since midnight (hover to see other rain measurements)
** Current wind speed in m/s (hover to see current wind gust speed)